Location: Lakeview Terrace
(41.4931°N, 81.7101°W)
Time: 20:23:32
(UTC+00:00)

Cosmos 1892 - Pass Details

Date: 29 October 2020
Orbit: 504 x 524 km, 82.5° (Epoch: 03 December)

Event Time Altitude Azimuth Distance (km) Brightness Sun altitude
Rises 23:14:58 0° 359° (N) 2,666 6.2 -9.9°
Reaches altitude 10° 23:17:12 10° 6° (N) 1,773 5.3 -10.4°
Maximum altitude 23:20:54 41° 78° (ENE) 766 3.1 -11.0°
Drops below altitude 10° 23:24:35 10° 150° (SSE) 1,758 5.2 -11.7°
Sets 23:26:47 0° 158° (SSE) 2,640 6.1 -12.1°
